Regional Weather Roundup
Issued by NWS

Home | Current Version | Previous Version | Graphics & Text | Print | Product List | Glossary On
Versions: 1 2 3 4 5 6 7 8 9 10 11 12 13 14 15 16 17 18 19 20 21 22 23 24 25 26 27
000
ASUS45 KBOI 251610
RWRID

IDAHO REGIONAL WEATHER ROUNDUP
NATIONAL WEATHER SERVICE BOISE ID
1000 AM MDT WED MAY 25 2016

NOTE: "FAIR" INDICATES FEW OR NO CLOUDS BELOW 12000 FEET
WITH NO SIGNIFICANT WEATHER AND/OR OBSTRUCTIONS TO VISIBILITY

IDZ012-014-251700-
SOUTHWEST IDAHO


CITY           SKY/WX    TMP DP  RH WIND       PRES   REMARKS
BOISE          MOSUNNY   59  42  53 NW7       30.02R
CALDWELL       SUNNY     61  44  53 W9        30.02R
MOUNTAIN HOME  PTSUNNY   60  47  61 W6        30.02R
$$

IDZ016-017-251700-
SOUTHCENTRAL IDAHO


CITY           SKY/WX    TMP DP  RH WIND       PRES   REMARKS
BURLEY         SUNNY     57  41  55 W9G21     30.01R
JEROME         CLOUDY    53  43  68 SW12      30.04R
TWIN FALLS     CLOUDY    51  43  74 W13       30.04R
$$

IDZ019>023-251700-
SOUTHEAST IDAHO


CITY           SKY/WX    TMP DP  RH WIND       PRES   REMARKS
IDAHO FALLS    CLOUDY    50  43  77 CALM      30.03R
POCATELLO      CLOUDY    53  43  68 W17       30.03R
REXBURG        CLOUDY    47  43  86 CALM      30.02R
$$

IDZ006-010-011-018-031-032-251700-
CENTRAL IDAHO MOUNTAINS


CITY           SKY/WX    TMP DP  RH WIND       PRES   REMARKS
MCCALL         SUNNY     52  35  52 NW6       30.02R
HAILEY         MOSUNNY   52  43  71 SE5       30.04R
STANLEY          N/A     48  35  60 N5        30.05R
SALMON         CLOUDY    50  37  62 CALM      30.02R
CHALLIS        CLOUDY    50  40  68 CALM      30.02R
$$

IDZ002-004-006-007-026-251700-
NORTHERN IDAHO


CITY           SKY/WX    TMP DP  RH WIND       PRES   REMARKS
LEWISTON       CLOUDY    56  50  80 CALM      30.03R
LOWELL           N/A     54  46  74 CALM      30.06S
COEUR D`ALENE  PTSUNNY   55  48  76 S9        29.99R
MULLAN PASS    FOG       41  41 100 NW5       30.04R VSB 1/4
$$




USA.gov is the U.S. government's official web portal to all federal, state and local government web resources and services.